| time (UTC) | temp F | wind direction | speed MPH | gust MPH | rain 1hr in | rain 24hr in | rain mn in | humidity % | barometer mb |
| 20260906043409 | 70 | 9 | 0.0 | 0.0 | 0.00 | 0.39 | 0.00 | 83 | 1012.4 |
| 20260906042339 | 70 | 9 | 0.0 | 0.0 | 0.00 | 0.39 | 0.00 | 84 | 1012.4 |
| 20260906041337 | 70 | 5 | 0.0 | 0.0 | 0.00 | 0.39 | 0.00 | 84 | 1012.4 |
| 20260906040332 | 70 | 5 | 0.0 | 0.0 | 0.00 | 0.39 | 0.00 | 83 | 1012.4 |
| 20260906035306 | 71 | 5 | 0.0 | 0.0 | 0.00 | 0.39 | 0.40 | 83 | 1012.4 |
| 20260906034236 | 71 | 5 | 0.0 | 0.0 | 0.00 | 0.39 | 0.40 | 84 | 1012.5 |
| 20260906033236 | 71 | 5 | 0.0 | 0.0 | 0.00 | 0.39 | 0.40 | 84 | 1012.5 |
| 20260906032237 | 72 | 5 | 0.0 | 0.0 | 0.00 | 0.39 | 0.40 | 84 | 1012.5 |
| 20260906031219 | 72 | 5 | 0.0 | 0.0 | 0.00 | 0.39 | 0.40 | 85 | 1012.4 |
| 20260906030231 | 72 | 5 | 0.0 | 0.0 | 0.00 | 0.39 | 0.40 | 85 | 1012.4 |
| 20260906025213 | 72 | 5 | 0.0 | 0.0 | 0.00 | 0.39 | 0.40 | 86 | 1012.4 |
| 20260906024148 | 73 | 5 | 0.0 | 0.0 | 0.00 | 0.39 | 0.40 | 85 | 1012.5 |
| 20260906023115 | 73 | 355 | 0.0 | 1.0 | 0.00 | 0.39 | 0.40 | 86 | 1012.4 |
| 20260906022052 | 74 | 355 | 0.0 | 0.0 | 0.00 | 0.39 | 0.40 | 88 | 1012.3 |
| 20260906021102 | 74 | 355 | 0.0 | 0.0 | 0.00 | 0.39 | 0.40 | 88 | 1012.2 |
| 20260906015015 | 74 | 355 | 0.0 | 0.0 | 0.00 | 0.39 | 0.40 | 88 | 1012.1 |
| 20260906014025 | 75 | 355 | 0.0 | 0.0 | 0.00 | 0.39 | 0.40 | 87 | 1011.8 |
| 20260906013047 | 75 | 355 | 0.0 | 0.0 | 0.00 | 0.39 | 0.40 | 87 | 1011.7 |
| 20260906010940 | 76 | 345 | 0.0 | 0.0 | 0.00 | 0.39 | 0.40 | 87 | 1011.5 |
| 20260906005958 | 76 | 345 | 0.0 | 0.0 | 0.00 | 0.39 | 0.40 | 86 | 1011.4 |
| 20260906003836 | 77 | 262 | 0.0 | 0.0 | 0.00 | 0.39 | 0.40 | 85 | 1011.0 |
| 20260906002847 | 77 | 262 | 0.0 | 0.0 | 0.00 | 0.39 | 0.40 | 85 | 1011.1 |
| 20260906001857 | 78 | 262 | 0.0 | 0.0 | 0.00 | 0.39 | 0.40 | 84 | 1011.1 |
| 20260906000907 | 78 | 262 | 0.0 | 0.0 | 0.00 | 0.39 | 0.40 | 83 | 1011.1 |
| 20260905235926 | 78 | 259 | 0.0 | 0.0 | 0.00 | 0.39 | 0.40 | 83 | 1011.1 |
| 20260905234939 | 79 | 259 | 0.0 | 0.0 | 0.00 | 0.39 | 0.40 | 82 | 1011.2 |
| 20260905232841 | 80 | 259 | 0.0 | 0.0 | 0.00 | 0.39 | 0.40 | 80 | 1011.0 |
| 20260905231834 | 80 | 259 | 0.0 | 0.0 | 0.00 | 0.39 | 0.40 | 80 | 1011.1 |
| 20260905230841 | 80 | 259 | 0.0 | 0.0 | 0.00 | 0.39 | 0.40 | 80 | 1010.6 |
| 20260905224657 | 80 | 259 | 0.0 | 0.0 | 0.00 | 0.39 | 0.40 | 79 | 1010.3 |
| 20260905223655 | 80 | 259 | 0.0 | 0.0 | 0.00 | 0.39 | 0.40 | 78 | 1010.3 |
| 20260905222654 | 80 | 259 | 0.0 | 0.0 | 0.00 | 0.39 | 0.40 | 78 | 1010.2 |
| 20260905220533 | 81 | 259 | 0.0 | 1.0 | 0.00 | 0.39 | 0.40 | 77 | 1010.4 |
| 20260905215517 | 81 | 259 | 0.0 | 0.0 | 0.00 | 0.39 | 0.40 | 76 | 1010.5 |
| 20260905214456 | 81 | 259 | 0.0 | 2.0 | 0.00 | 0.39 | 0.40 | 76 | 1010.4 |
| 20260905213421 | 81 | 259 | 0.0 | 1.0 | 0.00 | 0.39 | 0.40 | 76 | 1010.3 |
| 20260905212432 | 81 | 259 | 0.0 | 0.0 | 0.00 | 0.39 | 0.40 | 75 | 1010.4 |
| 20260905211407 | 82 | 258 | 0.0 | 2.0 | 0.00 | 0.39 | 0.40 | 75 | 1010.4 |
| 20260905210418 | 82 | 259 | 0.0 | 0.0 | 0.00 | 0.39 | 0.40 | 74 | 1010.4 |
| 20260905205401 | 82 | 259 | 0.0 | 0.0 | 0.00 | 0.39 | 0.40 | 75 | 1010.4 |
| 20260905204330 | 82 | 259 | 0.0 | 0.0 | 0.00 | 0.39 | 0.40 | 74 | 1010.5 |
| 20260905203344 | 82 | 259 | 0.0 | 0.0 | 0.00 | 0.39 | 0.40 | 75 | 1010.8 |
| 20260905202334 | 82 | 259 | 0.0 | 0.0 | 0.00 | 0.39 | 0.40 | 73 | 1010.9 |
| 20260905201323 | 81 | 259 | 0.0 | 2.0 | 0.00 | 0.39 | 0.40 | 73 | 1011.0 |
| 20260905200331 | 81 | 254 | 0.0 | 1.0 | 0.00 | 0.39 | 0.40 | 72 | 1011.0 |
| 20260905195333 | 81 | 254 | 0.0 | 1.0 | 0.00 | 0.39 | 0.40 | 74 | 1011.0 |
| 20260905194332 | 81 | 254 | 0.0 | 1.0 | 0.00 | 0.39 | 0.40 | 75 | 1011.1 |
| 20260905193311 | 81 | 254 | 0.0 | 0.0 | 0.00 | 0.39 | 0.40 | 75 | 1011.2 |
| 20260905191201 | 81 | 254 | 0.0 | 0.0 | 0.00 | 0.39 | 0.40 | 75 | 1011.4 |
| 20260905190136 | 81 | 254 | 0.0 | 2.0 | 0.00 | 0.39 | 0.40 | 76 | 1011.5 |
| 20260905185150 | 80 | 254 | 0.0 | 0.0 | 0.00 | 0.39 | 0.40 | 77 | 1011.7 |
| 20260905184204 | 80 | 254 | 0.0 | 0.0 | 0.00 | 0.39 | 0.40 | 77 | 1011.8 |
| 20260905183135 | 80 | 254 | 0.0 | 0.0 | 0.00 | 0.39 | 0.40 | 75 | 1011.9 |
| 20260905175821 | 80 | 69 | 0.0 | 0.0 | 0.00 | 0.39 | 0.40 | 76 | 1011.9 |
| 20260905174805 | 80 | 69 | 0.0 | 0.0 | 0.00 | 0.39 | 0.40 | 76 | 1011.8 |
| 20260905171523 | 80 | 69 | 0.0 | 0.0 | 0.00 | 0.48 | 0.40 | 76 | 1012.1 |
| 20260905170452 | 80 | 69 | 0.0 | 1.0 | 0.00 | 0.48 | 0.40 | 76 | 1012.3 |
| 20260905165516 | 80 | 126 | 0.0 | 0.0 | 0.00 | 0.52 | 0.40 | 78 | 1012.2 |
| 20260905163406 | 79 | 193 | 0.0 | 0.0 | 0.00 | 0.54 | 0.40 | 81 | 1012.0 |
| 20260905162425 | 78 | 193 | 0.0 | 0.0 | 0.00 | 0.54 | 0.40 | 81 | 1012.2 |
| 20260905160249 | 78 | 194 | 0.0 | 0.0 | 0.00 | 0.54 | 0.40 | 82 | 1012.0 |
| 20260905155235 | 77 | 194 | 0.0 | 0.0 | 0.00 | 0.54 | 0.40 | 83 | 1012.0 |
| 20260905154202 | 76 | 194 | 0.0 | 0.0 | 0.00 | 0.54 | 0.40 | 86 | 1011.8 |
| 20260905153158 | 74 | 194 | 0.0 | 0.0 | 0.00 | 0.54 | 0.40 | 89 | 1011.8 |
| 20260905152131 | 73 | 194 | 0.0 | 0.0 | 0.00 | 0.54 | 0.40 | 94 | 1011.9 |
| 20260905151111 | 72 | 194 | 0.0 | 1.0 | 0.00 | 0.54 | 0.40 | 96 | 1011.7 |
| 20260905150047 | 72 | 194 | 0.0 | 0.0 | 0.00 | 0.54 | 0.40 | 96 | 1011.7 |
| 20260905145059 | 71 | 194 | 0.0 | 0.0 | 0.00 | 0.54 | 0.40 | 96 | 1011.8 |
| 20260905144035 | 71 | 194 | 0.0 | 0.0 | 0.00 | 0.54 | 0.40 | 97 | 1011.8 |
| 20260905143013 | 70 | 194 | 0.0 | 0.0 | 0.00 | 0.54 | 0.40 | 96 | 1011.6 |
| 20260905142021 | 70 | 194 | 0.0 | 0.0 | 0.00 | 0.54 | 0.40 | 97 | 1011.6 |
| 20260905141032 | 69 | 194 | 0.0 | 0.0 | 0.00 | 0.54 | 0.40 | 96 | 1011.3 |
| 20260905140043 | 69 | 194 | 0.0 | 0.0 | 0.00 | 0.54 | 0.40 | 97 | 1011.2 |
| 20260905135050 | 69 | 194 | 0.0 | 0.0 | 0.00 | 0.54 | 0.40 | 96 | 1011.5 |
| 20260905134046 | 69 | 194 | 0.0 | 0.0 | 0.00 | 0.54 | 0.40 | 96 | 1011.7 |
| 20260905133102 | 69 | 194 | 0.0 | 0.0 | 0.00 | 0.54 | 0.40 | 96 | 1011.8 |
| 20260905132104 | 68 | 194 | 0.0 | 0.0 | 0.00 | 0.54 | 0.40 | 96 | 1011.7 |
| 20260905131043 | 68 | 194 | 0.0 | 0.0 | 0.00 | 0.54 | 0.40 | 96 | 1011.9 |
| 20260905123729 | 68 | 194 | 0.0 | 0.0 | 0.00 | 0.54 | 0.40 | 96 | 1012.1 |
| 20260905120440 | 68 | 194 | 0.0 | 0.0 | 0.05 | 0.54 | 0.40 | 96 | 1012.5 |
| 20260905114340 | 69 | 205 | 0.0 | 3.0 | 0.10 | 0.54 | 0.38 | 96 | 1011.6 |
| 20260905113352 | 69 | 281 | 0.0 | 0.0 | 0.06 | 0.51 | 0.37 | 96 | 1012.2 |
| 20260905112340 | 69 | 281 | 0.0 | 0.0 | 0.08 | 0.50 | 0.36 | 96 | 1012.0 |
| 20260905111326 | 69 | 281 | 0.0 | 0.0 | 0.09 | 0.50 | 0.35 | 96 | 1012.2 |
| 20260905110316 | 69 | 281 | 0.0 | 0.0 | 0.09 | 0.47 | 0.33 | 96 | 1013.0 |
| 20260905105332 | 69 | 281 | 0.0 | 0.0 | 0.12 | 0.47 | 0.32 | 96 | 1013.3 |
| 20260905104341 | 69 | 281 | 0.0 | 0.0 | 0.10 | 0.44 | 0.30 | 96 | 1013.5 |
| 20260905103326 | 69 | 280 | 0.0 | 0.0 | 0.08 | 0.42 | 0.27 | 96 | 1013.4 |
| 20260905102338 | 69 | 280 | 0.0 | 1.0 | 0.13 | 0.41 | 0.27 | 96 | 1013.0 |
| 20260905100255 | 69 | 280 | 0.0 | 2.0 | 0.10 | 0.39 | 0.25 | 95 | 1013.2 |
| 20260905094219 | 69 | 254 | 0.0 | 0.0 | 0.06 | 0.36 | 0.21 | 95 | 1013.0 |
| 20260905092024 | 70 | 302 | 2.0 | 6.0 | 0.15 | 0.29 | 0.16 | 95 | 1013.2 |
| 20260905090957 | 70 | 273 | 0.0 | 5.0 | 0.00 | 0.27 | 0.12 | 95 | 1012.7 |
| 20260905090017 | 70 | 339 | 0.0 | 0.0 | 0.00 | 0.27 | 0.12 | 94 | 1011.0 |
| 20260905084945 | 70 | 339 | 0.0 | 0.0 | 0.00 | 0.27 | 0.12 | 94 | 1011.6 |
| 20260905084008 | 70 | 339 | 0.0 | 0.0 | 0.06 | 0.25 | 0.10 | 94 | 1011.0 |
| 20260905083033 | 71 | 339 | 0.0 | 0.0 | 0.31 | 0.24 | 0.10 | 93 | 1011.3 |
| 20260905082003 | 71 | 339 | 0.0 | 0.0 | 0.30 | 0.17 | 0.03 | 93 | 1012.1 |
| 20260905074625 | 72 | 280 | 2.0 | 6.0 | 0.00 | 0.14 | 0.00 | 96 | 1012.0 |
| 20260905073632 | 73 | 155 | 0.0 | 1.0 | 0.00 | 0.14 | 0.00 | 96 | 1011.9 |
| 20260905072651 | 72 | 154 | 0.0 | 0.0 | 0.00 | 0.14 | 0.00 | 96 | 1011.4 |
| 20260905070515 | 72 | 154 | 0.0 | 0.0 | 0.00 | 0.14 | 0.00 | 96 | 1011.7 |
| 20260905065539 | 72 | 154 | 0.0 | 0.0 | 0.00 | 0.14 | 0.00 | 96 | 1011.2 |
| 20260905064540 | 71 | 154 | 0.0 | 0.0 | 0.00 | 0.14 | 0.00 | 96 | 1011.4 |
| 20260905063512 | 71 | 154 | 0.0 | 0.0 | 0.00 | 0.14 | 0.00 | 95 | 1011.4 |
| 20260905061407 | 71 | 154 | 0.0 | 0.0 | 0.00 | 0.14 | 0.00 | 95 | 1011.3 |
| 20260905060339 | 71 | 154 | 0.0 | 0.0 | 0.00 | 0.14 | 0.00 | 95 | 1011.6 |
| 20260905055350 | 71 | 154 | 0.0 | 0.0 | 0.00 | 0.14 | 0.00 | 95 | 1011.8 |
| 20260905054336 | 71 | 154 | 0.0 | 0.0 | 0.00 | 0.14 | 0.00 | 95 | 1011.9 |
| 20260905052251 | 72 | 154 | 0.0 | 0.0 | 0.00 | 0.14 | 0.00 | 95 | 1011.9 |
| 20260905051227 | 72 | 154 | 0.0 | 0.0 | 0.00 | 0.14 | 0.00 | 95 | 1012.1 |
| 20260905050212 | 72 | 154 | 0.0 | 0.0 | 0.00 | 0.14 | 0.00 | 95 | 1012.3 |
| 20260905045233 | 72 | 154 | 0.0 | 0.0 | 0.00 | 0.14 | 0.00 | 95 | 1012.3 |
| 20260905044241 | 72 | 154 | 0.0 | 0.0 | 0.00 | 0.14 | 0.00 | 95 | 1012.4 |